When you browse on this site, cookies collect data to enhance your experience and personalize the content and advertising you see.
Visit our Privacy Policy to learn more. By continuing to use the site, you agree to this use of cookies and data.
  • en France
  • Liste des pays
  • À 7 jours
  • Température de l'eau
  • Carte météo
  • Widgets météo
  • user-avatar
    Se connecter

    Météo par heure à Caen

    Ce jour, 18 Septembre, Mercredi

    Heure Température Précipitation Vent Pression Humidité
    00:00 +10°C° 0 mm 6 m/s 767 mmHg 83%
    01:00 +10°C° 0 mm 5 m/s 767 mmHg 84%
    02:00 +10°C° 0 mm 5 m/s 767 mmHg 85%
    03:00 +9°C° 0 mm 5 m/s 767 mmHg 86%
    04:00 +9°C° 0 mm 5 m/s 767 mmHg 86%
    05:00 +9°C° 0 mm 5 m/s 768 mmHg 86%
    06:00 +8°C° 0 mm 5 m/s 768 mmHg 86%
    07:00 +10°C° 0 mm 6 m/s 768 mmHg 77%
    08:00 +13°C° 0 mm 6 m/s 768 mmHg 67%
    09:00 +15°C° 0 mm 6 m/s 768 mmHg 58%
    10:00 +16°C° 0 mm 6 m/s 768 mmHg 54%
    11:00 +17°C° 0 mm 6 m/s 768 mmHg 51%
    12:00 +19°C° 0 mm 6 m/s 768 mmHg 48%
    13:00 +18°C° 0 mm 7 m/s 768 mmHg 49%
    14:00 +18°C° 0 mm 7 m/s 768 mmHg 50%
    15:00 +18°C° 0 mm 7 m/s 768 mmHg 51%
    16:00 +17°C° 0 mm 7 m/s 768 mmHg 56%
    17:00 +16°C° 0 mm 7 m/s 768 mmHg 62%
    18:00 +15°C° 0 mm 7 m/s 768 mmHg 67%
    19:00 +14°C° 0 mm 7 m/s 768 mmHg 68%
    20:00 +14°C° 0 mm 6 m/s 769 mmHg 70%
    21:00 +13°C° 0 mm 6 m/s 769 mmHg 71%
    22:00 +11°C° 0 mm 6 m/s 769 mmHg 72%
    23:00 +11°C° 0 mm 6 m/s 769 mmHg 73%

    Demain, 19 Septembre, Jeudi

    Heure Température Précipitation Vent Pression Humidité
    00:00 +10°C° 0 mm 5 m/s 769 mmHg 74%
    01:00 +9°C° 0 mm 5 m/s 769 mmHg 76%
    02:00 +9°C° 0 mm 5 m/s 769 mmHg 78%
    03:00 +8°C° 0 mm 4 m/s 769 mmHg 80%
    04:00 +8°C° 0 mm 4 m/s 769 mmHg 82%
    05:00 +8°C° 0 mm 4 m/s 769 mmHg 83%
    06:00 +7°C° 0 mm 4 m/s 769 mmHg 85%
    07:00 +10°C° 0 mm 5 m/s 769 mmHg 76%
    08:00 +13°C° 0 mm 6 m/s 770 mmHg 67%
    09:00 +15°C° 0 mm 7 m/s 770 mmHg 58%
    10:00 +16°C° 0 mm 7 m/s 770 mmHg 55%
    11:00 +17°C° 0 mm 7 m/s 769 mmHg 52%
    12:00 +20°C° 0 mm 7 m/s 769 mmHg 48%
    13:00 +20°C° 0 mm 7 m/s 769 mmHg 47%
    14:00 +20°C° 0 mm 7 m/s 768 mmHg 46%
    15:00 +20°C° 0 mm 7 m/s 768 mmHg 45%
    16:00 +18°C° 0 mm 7 m/s 768 mmHg 48%
    17:00 +17°C° 0 mm 6 m/s 768 mmHg 51%
    18:00 +16°C° 0 mm 6 m/s 767 mmHg 55%
    19:00 +15°C° 0 mm 6 m/s 768 mmHg 57%
    20:00 +14°C° 0 mm 6 m/s 768 mmHg 59%
    21:00 +13°C° 0 mm 6 m/s 768 mmHg 61%
    22:00 +13°C° 0 mm 6 m/s 768 mmHg 62%
    23:00 +11°C° 0 mm 6 m/s 768 mmHg 63%

    Après-demain, 20 Septembre, Vendredi

    Heure Température Précipitation Vent Pression Humidité
    00:00 +10°C° 0 mm 5 m/s 767 mmHg 63%
    01:00 +9°C° 0 mm 5 m/s 767 mmHg 64%
    02:00 +9°C° 0 mm 5 m/s 767 mmHg 66%
    03:00 +8°C° 0 mm 5 m/s 766 mmHg 67%
    04:00 +8°C° 0 mm 5 m/s 766 mmHg 67%
    05:00 +7°C° 0 mm 5 m/s 765 mmHg 67%
    06:00 +7°C° 0 mm 5 m/s 765 mmHg 67%
    07:00 +9°C° 0 mm 6 m/s 765 mmHg 58%
    08:00 +12°C° 0 mm 7 m/s 765 mmHg 49%
    09:00 +15°C° 0 mm 7 m/s 764 mmHg 41%
    10:00 +17°C° 0 mm 7 m/s 764 mmHg 37%
    11:00 +20°C° 0 mm 7 m/s 763 mmHg 33%
    12:00 +22°C° 0 mm 7 m/s 763 mmHg 29%
    13:00 +22°C° 0 mm 7 m/s 762 mmHg 28%
    14:00 +23°C° 0 mm 7 m/s 761 mmHg 28%
    15:00 +24°C° 0 mm 6 m/s 761 mmHg 28%
    16:00 +22°C° 0 mm 6 m/s 760 mmHg 32%
    17:00 +20°C° 0 mm 5 m/s 760 mmHg 36%
    18:00 +18°C° 0 mm 4 m/s 760 mmHg 40%
    19:00 +17°C° 0 mm 4 m/s 759 mmHg 41%
    20:00 +15°C° 0 mm 5 m/s 759 mmHg 42%
    21:00 +14°C° 0 mm 5 m/s 759 mmHg 43%
    22:00 +14°C° 0 mm 5 m/s 759 mmHg 44%
    23:00 +15°C° 0 mm 5 m/s 758 mmHg 45%

    21 Septembre, Samedi

    Heure Température Précipitation Vent Pression Humidité
    00:00 +15°C° 0 mm 5 m/s 758 mmHg 45%
    01:00 +15°C° 0 mm 5 m/s 757 mmHg 49%
    02:00 +14°C° 0 mm 4 m/s 757 mmHg 52%
    03:00 +14°C° 0 mm 4 m/s 757 mmHg 56%
    04:00 +14°C° 0.1 mm 4 m/s 756 mmHg 62%
    05:00 +14°C° 0.1 mm 4 m/s 756 mmHg 68%
    06:00 +15°C° 0.1 mm 4 m/s 756 mmHg 74%
    07:00 +18°C° 0.2 mm 4 m/s 756 mmHg 71%
    08:00 +20°C° 0.2 mm 4 m/s 756 mmHg 69%
    09:00 +23°C° 0.2 mm 5 m/s 756 mmHg 67%
    10:00 +25°C° 0 mm 5 m/s 755 mmHg 62%
    11:00 +27°C° 0 mm 6 m/s 755 mmHg 57%
    12:00 +28°C° 0 mm 6 m/s 754 mmHg 52%
    13:00 +28°C° 0 mm 6 m/s 754 mmHg 52%
    14:00 +29°C° 0 mm 6 m/s 753 mmHg 51%
    15:00 +29°C° 0 mm 6 m/s 753 mmHg 51%
    16:00 +27°C° 0.4 mm 6 m/s 753 mmHg 61%
    17:00 +23°C° 0.4 mm 6 m/s 753 mmHg 70%
    18:00 +21°C° 0.4 mm 7 m/s 753 mmHg 80%
    19:00 +21°C° 0.2 mm 6 m/s 753 mmHg 81%
    20:00 +20°C° 0.2 mm 5 m/s 753 mmHg 83%
    21:00 +20°C° 0.2 mm 5 m/s 753 mmHg 85%
    22:00 +20°C° 0.1 mm 5 m/s 753 mmHg 87%
    23:00 +19°C° 0.1 mm 5 m/s 752 mmHg 88%

    22 Septembre, Dimanche

    Heure Température Précipitation Vent Pression Humidité
    00:00 +19°C° 0.1 mm 6 m/s 752 mmHg 89%
    01:00 +19°C° 0 mm 5 m/s 752 mmHg 91%
    02:00 +19°C° 0 mm 5 m/s 752 mmHg 92%
    03:00 +18°C° 0 mm 4 m/s 751 mmHg 93%
    04:00 +18°C° 1 mm 4 m/s 752 mmHg 93%
    05:00 +18°C° 1 mm 4 m/s 752 mmHg 93%
    06:00 +17°C° 1 mm 3 m/s 752 mmHg 93%
    07:00 +18°C° 0.5 mm 4 m/s 752 mmHg 91%
    08:00 +18°C° 0.5 mm 4 m/s 753 mmHg 88%
    09:00 +17°C° 0.5 mm 5 m/s 753 mmHg 86%
    10:00 +19°C° 0 mm 5 m/s 754 mmHg 76%
    11:00 +21°C° 0 mm 6 m/s 754 mmHg 66%
    12:00 +22°C° 0 mm 6 m/s 754 mmHg 56%
    13:00 +22°C° 0.1 mm 7 m/s 754 mmHg 55%
    14:00 +22°C° 0.1 mm 8 m/s 754 mmHg 54%
    15:00 +22°C° 0.1 mm 8 m/s 754 mmHg 52%
    16:00 +20°C° 0.1 mm 7 m/s 754 mmHg 60%
    17:00 +17°C° 0.1 mm 6 m/s 755 mmHg 67%
    18:00 +16°C° 0.1 mm 5 m/s 755 mmHg 74%
    19:00 +15°C° 0 mm 5 m/s 756 mmHg 77%
    20:00 +14°C° 0 mm 5 m/s 756 mmHg 80%
    21:00 +13°C° 0 mm 5 m/s 757 mmHg 83%
    22:00 +13°C° 0 mm 6 m/s 757 mmHg 85%
    23:00 +11°C° 0 mm 6 m/s 758 mmHg 86%

    23 Septembre, Lundi

    Heure Température Précipitation Vent Pression Humidité
    00:00 +11°C° 0 mm 6 m/s 758 mmHg 87%
    01:00 +11°C° 0 mm 6 m/s 758 mmHg 88%
    02:00 +10°C° 0 mm 6 m/s 759 mmHg 90%
    03:00 +10°C° 0 mm 5 m/s 759 mmHg 91%
    04:00 +10°C° 0 mm 5 m/s 759 mmHg 92%
    05:00 +9°C° 0 mm 5 m/s 759 mmHg 93%
    06:00 +10°C° 0 mm 4 m/s 760 mmHg 93%
    07:00 +12°C° 0 mm 5 m/s 760 mmHg 85%
    08:00 +14°C° 0 mm 5 m/s 760 mmHg 77%
    09:00 +15°C° 0 mm 5 m/s 760 mmHg 69%
    10:00 +16°C° 0 mm 5 m/s 760 mmHg 64%
    11:00 +17°C° 0 mm 6 m/s 760 mmHg 59%
    12:00 +19°C° 0 mm 6 m/s 760 mmHg 54%
    13:00 +17°C° 0.3 mm 6 m/s 760 mmHg 65%
    14:00 +16°C° 0.3 mm 6 m/s 760 mmHg 77%
    15:00 +14°C° 0.3 mm 6 m/s 759 mmHg 88%
    16:00 +15°C° 1 mm 6 m/s 759 mmHg 90%
    17:00 +15°C° 1 mm 6 m/s 759 mmHg 92%
    18:00 +16°C° 1 mm 6 m/s 759 mmHg 94%
    19:00 +16°C° 0.3 mm 7 m/s 759 mmHg 94%
    20:00 +16°C° 0.3 mm 7 m/s 759 mmHg 93%
    21:00 +16°C° 0.3 mm 7 m/s 759 mmHg 92%
    22:00 +16°C° 0 mm 7 m/s 759 mmHg 92%
    23:00 +16°C° 0 mm 7 m/s 759 mmHg 92%
    Voir plus